Hanford, WA
on Thursday, December 6, 2012

Thursday
Previous Day Next Day
Daily Summary
 ActualAverage (KMWH)Record (KMWH)
Temperature
Mean Temperature °F 30°F  
Max Temperature 48°F 36°F 51°F (1981)
Min Temperature 28°F 24°F 10°F (2005)
Degree Days
Heating Degree Days 27 35  
Month to date heating degree days 205  
Since 1 July heating degree days 1666  
Cooling Degree Days 0 0  
Month to date cooling degree days 0  
Year to date cooling degree days 615  
Moisture
Dew Point 31°F   
Average Humidity 78    
Maximum Humidity 94    
Minimum Humidity 53    
Precipitation
Precipitation 0.00 in 0.04 in 0.27 in (1982)
Month to date precipitation 0.22  
Year to date precipitation 7.89  
Wind
Wind Speed 6 mph   
Max Wind Speed 20 mph   
Max Gust Speed mph   
Visibility 15 miles   
Events     

Key: T is trace of precipitation, MM is missing value
Source: NWS Daily Summary
Time(PST)TemperatureDew PointHumidity Pressure Visibility Wind DirectionWind SpeedGust SpeedPrecipitationEvents Conditions
12:50 AM 30.0°F 27.0°F 88% 30.17 in 15.0 miles South 2.3 mph - N/A   Partly Cloudy
1:50 AM 30.6°F 27.3°F 88% 30.17 in 15.0 miles NW 4.6 mph - N/A   Partly Cloudy
2:50 AM 32.2°F 27.3°F 82% 30.17 in 15.0 miles WSW 6.9 mph - N/A   Partly Cloudy
3:50 AM 28.8°F 26.8°F 92% 30.14 in 15.0 miles SW 3.5 mph - N/A   Partly Cloudy
4:50 AM 28.9°F 27.1°F 93% 30.15 in 15.0 miles SW 4.6 mph - N/A   Overcast
5:50 AM 31.8°F 29.7°F 92% 30.13 in 15.0 miles South 4.6 mph - N/A   Overcast
6:50 AM 32.7°F 29.7°F 88% 30.13 in 15.0 miles South 3.5 mph - N/A   Overcast
7:50 AM 30.7°F 29.1°F 94% 30.12 in 15.0 miles NNW 4.6 mph - N/A   Overcast
8:50 AM 32.4°F 30.2°F 92% 30.11 in 15.0 miles East 5.8 mph - N/A   Overcast
9:50 AM 35.8°F 33.1°F 90% 30.12 in 15.0 miles ESE 3.5 mph - N/A   Overcast
10:50 AM 37.8°F 34.9°F 89% 30.12 in 15.0 miles East 4.6 mph - N/A   Mostly Cloudy
11:50 AM 41.4°F 34.2°F 76% 30.09 in 15.0 miles NNE 3.5 mph - N/A   Mostly Cloudy
12:50 PM 44.1°F 34.3°F 69% 30.07 in 15.0 miles East 6.9 mph - N/A   Mostly Cloudy
1:50 PM 48.9°F 32.7°F 54% 30.05 in 15.0 miles SSE 4.6 mph - N/A   Mostly Cloudy
2:50 PM 48.4°F 32.0°F 53% 30.02 in 15.0 miles SSW 18.4 mph - N/A   Scattered Clouds
3:50 PM 47.5°F 32.4°F 56% 30.02 in 15.0 miles SSW 19.6 mph - N/A   Scattered Clouds
4:50 PM 45.3°F 33.3°F 63% 30.02 in 15.0 miles SSW 17.3 mph - N/A   Scattered Clouds
5:50 PM 43.5°F 32.7°F 66% 30.02 in 15.0 miles SSW 15.0 mph - N/A   Scattered Clouds
6:50 PM 43.0°F 32.7°F 67% 30.02 in 15.0 miles WSW 12.7 mph - N/A   Scattered Clouds
10:50 PM 37.8°F 31.1°F 77% 30.06 in 15.0 miles WSW 4.6 mph - N/A   Overcast
11:50 PM 39.0°F 31.5°F 74% 30.07 in 15.0 miles WSW 8.1 mph - N/A   Overcast
Moon Phase
Dec. 06 Dec. 13 Dec. 20 Dec. 28 Jan. 04
Sunrise:07:28 AM (PST) Moon Rise:No Moon Rise/
Sunset:04:11 PM (PST) Moon Set:12:01 PM (PST)12/6

Copyright © 2014 The Weather Underground, Inc.